Regional Weather Roundup
Issued by NWS

Home | Current Version | Previous Version | Graphics & Text | Print | Product List | Glossary On
Versions: 1 2 3 4 5 6 7 8 9 10 11 12 13 14 15 16 17 18 19 20 21 22 23 24 25 26 27 28 29 30 31 32 33 34 35 36 37 38 39 40 41 42 43 44 45 46 47 48 49 50
000
ASUS43 KDMX 032007
RWRIA

WEATHER ROUNDUP FOR IOWA
NATIONAL WEATHER SERVICE DES MOINES IA
300 PM CDT SUN MAY 03 2015

NOTE: "FAIR" INDICATES FEW OR NO CLOUDS BELOW 12,000 FEET WITH NO
SIGNIFICANT WEATHER AND/OR OBSTRUCTIONS TO VISIBILITY.

* - THESE STATIONS ARE NOT NWS STATIONS...THUS NOT UNDER NWS
QUALITY CONTROL.  THEY ALSO DO NOT REPORT WEATHER SUCH
AS PRECIPITATION OR FOG.

IAZ001>003-012>014-020>022-031>034-043>046-032100-
   NORTHWEST IOWA

CITY           SKY/WX    TMP DP  RH WIND       PRES   REMARKS
CARROLL *      SUNNY     82  61  47 S9G21     29.76S HX  83
CHEROKEE *     SUNNY     82  57  42 SW10      29.73S HX  82
DENISON *      SUNNY     82  63  51 S10G17    29.74R HX  83
LE MARS *      SUNNY     84  55  37 VRB6G13   29.74S HX  83
ORANGE CITY *  SUNNY     82  52  34 CALM      29.74S HX  81
SHELDON *      SUNNY     86  54  32 VRB5G13   29.73F HX  84
SIOUX CITY     SUNNY     84  56  38 CALM      29.73S HX  83
SPENCER        MOSUNNY   84  51  31 NE3       29.74F HX  82
STORM LAKE *   SUNNY     84  55  37 S13G20    29.76S HX  83
$$

IAZ055>058-069>071-079>083-090>094-032100-
   SOUTHWEST IOWA

CITY           SKY/WX    TMP DP  RH WIND       PRES   REMARKS
ATLANTIC *     SUNNY     79  61  53 S16G24    29.77S HX  80
AUDUBON *      SUNNY     81  63  54 S10G20    29.78S HX  82
CLARINDA *     SUNNY     82  61  47 S15G24    29.79S HX  83
COUNCIL BLFS * SUNNY     77  64  65 SE7       29.75F
CRESTON *      SUNNY     79  61  53 S18G25    29.79F HX  80
HARLAN  *      SUNNY     82  63  51 S17G24    29.79S HX  83
LAMONI         MOSUNNY   80  59  48 SW20G28   29.81S HX  81
RED OAK *      SUNNY     79  61  53 SW12      29.77S HX  80
SHENANDOAH *   SUNNY     84  61  45 S16G23    29.78R HX  84
$$

IAZ047>049-059>061-072>074-084-032100-
   CENTRAL IOWA

CITY           SKY/WX    TMP DP  RH WIND       PRES   REMARKS
AMES           SUNNY     79  59  50 S12       29.78F HX  80
ANKENY *       SUNNY     81  61  50 S14       29.78F HX  81
CHARITON *     SUNNY     81  59  47 S18G26    29.80F HX  81
DES MOINES     MOSUNNY   82  58  43 S17       29.79F HX  82
GRINNELL*      SUNNY     79  57  47 S15G25    29.83F HX  80
KNOXVILLE *    SUNNY     81  57  44 S14G22    29.79F HX  81
MARSHALLTOWN   SUNNY     80  59  48 S14       29.79F HX  81
PELLA *        SUNNY     81  63  54 S14G21    29.82F HX  82
PERRY *          N/A     82  57  42 S14G23    29.77F HX  82
$$

IAZ004>006-015-016-023>025-035-036-032100-
   NORTH CENTRAL IOWA

CITY           SKY/WX    TMP DP  RH WIND       PRES   REMARKS
ALGONA *       SUNNY     84  54  34 S13       29.75F HX  83
CLARION *      SUNNY     84  55  37 S9G24     29.77S HX  83
ESTHERVILLE    MOSUNNY   85  48  27 SW12G18   29.75F HX  82
FORT DODGE *   SUNNY     82  59  44 S9G18     29.77S HX  82
MASON CITY     SUNNY     85  54  34 S8        29.78F HX  83
FOREST CITY *  SUNNY     82  52  34 S13       29.77F HX  81
IOWA FALLS *     N/A     81  59  47 S15       29.80F HX  81
$$

IAZ007>011-017>019-026>030-037>042-050>054-066-032100-
   NORTHEAST IOWA

CITY           SKY/WX    TMP DP  RH WIND       PRES   REMARKS
CEDAR RAPIDS   MOSUNNY   75  61  61 S17G23    29.84F
CHARLES CITY * SUNNY     81  57  44 S8        29.80F HX  81
CLINTON *      CLOUDY    64  61  88 NE10      29.92S
DECORAH *      SUNNY     81  52  36 VRB7G16   29.81S HX  80
DUBUQUE        MOSUNNY   70  59  68 S15       29.87F
MONTICELLO *   SUNNY     70  63  78 S13       29.87F
OELWEIN *      SUNNY     81  57  44 S17G23    29.83S HX  81
WATERLOO       SUNNY     80  59  48 S10G17    29.80F HX  81
$$

IAZ064-065-067-068-078-032100-
   EAST CENTRAL IOWA

CITY           SKY/WX    TMP DP  RH WIND       PRES   REMARKS
DAVENPORT      PTSUNNY   69  60  73 E6        29.88F
IOWA CITY      MOSUNNY   78  62  57 VRB5      29.85F HX  80
MT. PLEASANT * PTSUNNY   82  54  36 SW17G28   29.86F HX  81
MUSCATINE *    MOSUNNY   82  59  44 SW16      29.85F HX  82
QUAD CITIES    PTSUNNY   79  58  48 W10G20    29.86F HX  80
$$

IAZ062-063-075>077-085>089-095>099-032100-
   SOUTHEAST IOWA

CITY           SKY/WX    TMP DP  RH WIND       PRES   REMARKS
BURLINGTON     MOSUNNY   82  57  42 SW15G25   29.87F HX  82
FAIRFIELD *    SUNNY     81  57  44 SW17G25   29.84F HX  81
FORT MADISON * MOSUNNY   82  55  39 S17       29.88F HX  82
KEOKUK *       PTSUNNY   81  57  44 SW16G28   29.87S HX  81
OSKALOOSA *      N/A     82  55  39 SW17G25   29.83F HX  82
CENTERVILLE *  SUNNY     79  59  50 S20G26    29.85F HX  80
OTTUMWA        SUNNY     82  58  43 S20G26    29.82F HX  82
WASHINGTON *   SUNNY     82  63  51 SW18G25   29.85S HX  83
$$

ABBREVIATIONS USED IN REMARKS
   TC - TEMPERATURES IN CELSIUS
  WCI - WIND CHILL INDEX
   HX - HEAT INDEX
  VSB - VISIBILITY
$$




USA.gov is the U.S. government's official web portal to all federal, state and local government web resources and services.